EJU89EZ EGGD-LPPR

Flight info

Callsign EJU89EZ
Flight time 1h 40m
Altitude 37000
Route N0452F370 EXMOR N92 DAWLY BHD SALCO COQUE KORUL ELTEP T328 ASPOR
Aircraft A320/M-SDE3FGHIRWY/LB1

Departure

Time 2026-05-07 19:28
Airport Bristol Airport (EGGD)

Arrival

Time 2026-05-07 21:08
Airport Francisco de Sá Carneiro Airport (LPPR)
Time Latitude Longitude Altitude Speed Heading
2026-05-07 19:05 51.38523 -2.71078 611 ft 0 kts 355°
2026-05-07 19:23 51.38513 -2.71077 612 ft 4 kts 356°
2026-05-07 19:23 51.38491 -2.71075 612 ft 2 kts 356°
2026-05-07 19:24 51.38468 -2.71079 614 ft 4 kts 43°
2026-05-07 19:24 51.38459 -2.71111 615 ft 4 kts 86°
2026-05-07 19:24 51.38458 -2.71123 615 ft 1 kts 86°
2026-05-07 19:26 51.38459 -2.71121 615 ft 1 kts 86°
2026-05-07 19:26 51.38461 -2.71066 615 ft 9 kts 86°
2026-05-07 19:26 51.38466 -2.70919 614 ft 13 kts 86°
2026-05-07 19:26 51.38472 -2.70772 611 ft 14 kts 86°
2026-05-07 19:27 51.38477 -2.70613 610 ft 14 kts 92°
2026-05-07 19:27 51.38400 -2.70503 610 ft 17 kts 164°
2026-05-07 19:27 51.38321 -2.70559 612 ft 13 kts 263°
2026-05-07 19:27 51.38313 -2.70755 608 ft 34 kts 267°
2026-05-07 19:28 51.38282 -2.71536 605 ft 107 kts 266°
2026-05-07 19:28 51.38225 -2.73095 703 ft 163 kts 268°
2026-05-07 19:28 51.38154 -2.74897 1400 ft 169 kts 265°
2026-05-07 19:28 51.38085 -2.76881 1955 ft 183 kts 264°
2026-05-07 19:29 51.38021 -2.78924 2509 ft 184 kts 264°
2026-05-07 19:29 51.37953 -2.81042 2849 ft 200 kts 264°
2026-05-07 19:29 51.37863 -2.83389 3145 ft 223 kts 264°
2026-05-07 19:29 51.37722 -2.85942 3392 ft 244 kts 253°
2026-05-07 19:30 51.36945 -2.88418 3796 ft 255 kts 226°
2026-05-07 19:30 51.35518 -2.90071 4570 ft 257 kts 200°
2026-05-07 19:30 51.33791 -2.90865 5436 ft 259 kts 193°
2026-05-07 19:30 51.32037 -2.91571 6285 ft 262 kts 193°
2026-05-07 19:31 51.30256 -2.92278 7111 ft 265 kts 194°
2026-05-07 19:31 51.28453 -2.92998 7894 ft 269 kts 194°
2026-05-07 19:31 51.26629 -2.93725 8705 ft 271 kts 194°
2026-05-07 19:31 51.24793 -2.94457 9514 ft 273 kts 194°
2026-05-07 19:32 51.22941 -2.95198 10273 ft 277 kts 194°
2026-05-07 19:32 51.20999 -2.95975 10515 ft 299 kts 194°
2026-05-07 19:32 51.18899 -2.96811 10683 ft 322 kts 194°
2026-05-07 19:32 51.16686 -2.97692 11151 ft 332 kts 194°
2026-05-07 19:33 51.14419 -2.98595 11796 ft 337 kts 194°
2026-05-07 19:33 51.12129 -2.99508 12458 ft 341 kts 195°
2026-05-07 19:33 51.09811 -3.00429 13110 ft 346 kts 195°
2026-05-07 19:33 51.07464 -3.01357 13762 ft 350 kts 195°
2026-05-07 19:34 51.05087 -3.02295 14345 ft 354 kts 195°
2026-05-07 19:34 51.02692 -3.03242 14946 ft 356 kts 195°
2026-05-07 19:34 51.00278 -3.04201 15540 ft 359 kts 195°
2026-05-07 19:34 50.97846 -3.05167 16150 ft 361 kts 195°
2026-05-07 19:35 50.95399 -3.06138 16761 ft 364 kts 195°
2026-05-07 19:35 50.92933 -3.07113 17337 ft 367 kts 195°
2026-05-07 19:35 50.90442 -3.08096 17932 ft 369 kts 195°
2026-05-07 19:35 50.87937 -3.09085 18494 ft 372 kts 195°
2026-05-07 19:36 50.85415 -3.10081 19003 ft 374 kts 195°
2026-05-07 19:36 50.82881 -3.11078 19501 ft 377 kts 195°
2026-05-07 19:36 50.80358 -3.12067 20011 ft 380 kts 195°
2026-05-07 19:36 50.77783 -3.13070 20525 ft 382 kts 194°
2026-05-07 19:37 50.75190 -3.14080 21037 ft 385 kts 194°
2026-05-07 19:37 50.72580 -3.15099 21519 ft 387 kts 195°
2026-05-07 19:37 50.69953 -3.16127 22010 ft 390 kts 194°
2026-05-07 19:37 50.67313 -3.17162 22486 ft 392 kts 194°
2026-05-07 19:38 50.64657 -3.18200 22947 ft 395 kts 194°
2026-05-07 19:38 50.61984 -3.19240 23398 ft 397 kts 194°
2026-05-07 19:38 50.59293 -3.20286 23781 ft 400 kts 195°
2026-05-07 19:38 50.56586 -3.21336 24127 ft 402 kts 194°
2026-05-07 19:39 50.53860 -3.22390 24488 ft 404 kts 194°
2026-05-07 19:39 50.51128 -3.23447 24839 ft 406 kts 195°
2026-05-07 19:39 50.48380 -3.24512 25195 ft 407 kts 195°
2026-05-07 19:39 50.45626 -3.25580 25544 ft 409 kts 195°
2026-05-07 19:40 50.42860 -3.26652 25887 ft 410 kts 195°
2026-05-07 19:40 50.40084 -3.27730 26221 ft 412 kts 195°
2026-05-07 19:40 50.37295 -3.28812 26536 ft 414 kts 195°
2026-05-07 19:40 50.34493 -3.29893 26860 ft 415 kts 195°
2026-05-07 19:41 50.31682 -3.30969 27174 ft 417 kts 194°
2026-05-07 19:41 50.28858 -3.32049 27482 ft 419 kts 194°
2026-05-07 19:41 50.26024 -3.33136 27773 ft 420 kts 195°
2026-05-07 19:41 50.23217 -3.34212 28061 ft 422 kts 194°
2026-05-07 19:42 50.20355 -3.35305 28343 ft 424 kts 194°
2026-05-07 19:42 50.17486 -3.36402 28615 ft 425 kts 194°
2026-05-07 19:42 50.14597 -3.37506 28868 ft 427 kts 194°
2026-05-07 19:42 50.11709 -3.38607 29134 ft 428 kts 195°
2026-05-07 19:43 50.08809 -3.39709 29384 ft 429 kts 195°
2026-05-07 19:43 50.05896 -3.40814 29626 ft 431 kts 195°
2026-05-07 19:43 50.02979 -3.41922 29858 ft 432 kts 195°
2026-05-07 19:43 50.00050 -3.43034 30075 ft 433 kts 195°
2026-05-07 19:44 49.97163 -3.44355 30319 ft 432 kts 203°
2026-05-07 19:44 49.94399 -3.46190 30582 ft 431 kts 204°
2026-05-07 19:44 49.91683 -3.48003 30833 ft 430 kts 204°
2026-05-07 19:44 49.88935 -3.49835 31098 ft 429 kts 204°
2026-05-07 19:45 49.86195 -3.51657 31361 ft 428 kts 204°
2026-05-07 19:45 49.83452 -3.53477 31628 ft 427 kts 204°
2026-05-07 19:45 49.80721 -3.55287 31888 ft 427 kts 204°
2026-05-07 19:45 49.77994 -3.57095 32147 ft 426 kts 204°
2026-05-07 19:46 49.75271 -3.58903 32408 ft 425 kts 204°
2026-05-07 19:46 49.72552 -3.60709 32663 ft 425 kts 204°
2026-05-07 19:46 49.69833 -3.62516 32927 ft 424 kts 204°
2026-05-07 19:46 49.67118 -3.64313 33162 ft 424 kts 204°
2026-05-07 19:47 49.64400 -3.66104 33407 ft 424 kts 204°
2026-05-07 19:47 49.61723 -3.67869 33648 ft 424 kts 204°
2026-05-07 19:47 49.58977 -3.69679 33898 ft 423 kts 204°
2026-05-07 19:47 49.56307 -3.71434 34116 ft 423 kts 204°
2026-05-07 19:48 49.53598 -3.73210 34300 ft 423 kts 204°
2026-05-07 19:48 49.50886 -3.74987 34484 ft 424 kts 204°
2026-05-07 19:48 49.48164 -3.76766 34657 ft 424 kts 204°
2026-05-07 19:48 49.45445 -3.78541 34822 ft 425 kts 204°
2026-05-07 19:49 49.42721 -3.80318 34979 ft 425 kts 204°
2026-05-07 19:49 49.39996 -3.82095 35139 ft 426 kts 204°
2026-05-07 19:49 49.37265 -3.83874 35296 ft 426 kts 204°
2026-05-07 19:49 49.34527 -3.85657 35448 ft 427 kts 204°
2026-05-07 19:50 49.31795 -3.87434 35600 ft 427 kts 204°
2026-05-07 19:50 49.29091 -3.89191 35739 ft 428 kts 204°
2026-05-07 19:50 49.26344 -3.90976 35886 ft 428 kts 204°
2026-05-07 19:50 49.23601 -3.92757 36007 ft 428 kts 204°
2026-05-07 19:51 49.20849 -3.94538 36139 ft 429 kts 204°
2026-05-07 19:51 49.18094 -3.96314 36269 ft 429 kts 204°
2026-05-07 19:51 49.15339 -3.98091 36407 ft 430 kts 205°
2026-05-07 19:51 49.12580 -3.99870 36536 ft 430 kts 205°
2026-05-07 19:52 49.09853 -4.01627 36667 ft 431 kts 205°
2026-05-07 19:52 49.07084 -4.03409 36796 ft 431 kts 205°
2026-05-07 19:52 49.04324 -4.05185 36957 ft 430 kts 205°
2026-05-07 19:52 49.01557 -4.06965 37005 ft 432 kts 205°
2026-05-07 19:53 48.95997 -4.10531 37005 ft 435 kts 205°
2026-05-07 19:53 48.90388 -4.14111 37005 ft 440 kts 205°
2026-05-07 19:54 48.84714 -4.17731 37005 ft 443 kts 205°
2026-05-07 19:54 48.79033 -4.21343 37008 ft 446 kts 205°
2026-05-07 19:55 48.73288 -4.24982 37009 ft 448 kts 204°
2026-05-07 19:55 48.67519 -4.28631 37007 ft 450 kts 204°
2026-05-07 19:56 48.61728 -4.32288 37004 ft 451 kts 204°
2026-05-07 19:56 48.55924 -4.35944 36980 ft 452 kts 205°
2026-05-07 19:57 48.50142 -4.39574 36976 ft 453 kts 205°
2026-05-07 19:57 48.44312 -4.43221 36976 ft 453 kts 205°
2026-05-07 19:58 48.38483 -4.46859 36977 ft 453 kts 205°
2026-05-07 19:58 48.32647 -4.50501 36969 ft 454 kts 205°
2026-05-07 19:59 48.26815 -4.54131 36974 ft 454 kts 205°
2026-05-07 19:59 48.21002 -4.57736 36977 ft 454 kts 205°
2026-05-07 20:00 48.15193 -4.61327 36980 ft 454 kts 205°
2026-05-07 20:00 48.09348 -4.64931 36975 ft 454 kts 205°
2026-05-07 20:01 48.03495 -4.68527 36984 ft 455 kts 205°
2026-05-07 20:01 47.97631 -4.72133 36993 ft 455 kts 205°
2026-05-07 20:02 47.91773 -4.75731 36986 ft 455 kts 205°
2026-05-07 20:02 47.85916 -4.79314 36986 ft 455 kts 205°
2026-05-07 20:03 47.80084 -4.82870 37015 ft 455 kts 205°
2026-05-07 20:03 47.74219 -4.86434 37013 ft 455 kts 205°
2026-05-07 20:04 47.68353 -4.89997 37007 ft 455 kts 205°
2026-05-07 20:04 47.62485 -4.93540 37014 ft 455 kts 205°
2026-05-07 20:05 47.56643 -4.97064 37003 ft 456 kts 205°
2026-05-07 20:05 47.50763 -5.00607 36996 ft 456 kts 205°
2026-05-07 20:06 47.44879 -5.04147 36985 ft 456 kts 205°
2026-05-07 20:06 47.38991 -5.07682 36986 ft 456 kts 205°
2026-05-07 20:07 47.33101 -5.11192 37008 ft 456 kts 205°
2026-05-07 20:07 47.27212 -5.14700 37006 ft 456 kts 205°
2026-05-07 20:08 47.21319 -5.18207 37009 ft 456 kts 205°
2026-05-07 20:08 47.15463 -5.21682 37006 ft 457 kts 205°
2026-05-07 20:09 47.09563 -5.25183 36996 ft 457 kts 205°
2026-05-07 20:10 47.00700 -5.30415 37002 ft 457 kts 204°
2026-05-07 20:10 46.94792 -5.33881 37002 ft 457 kts 205°
2026-05-07 20:11 46.89885 -5.36764 37005 ft 457 kts 205°
2026-05-07 20:11 46.83012 -5.40788 36991 ft 457 kts 205°
2026-05-07 20:12 46.78098 -5.43670 36999 ft 457 kts 205°
2026-05-07 20:12 46.72192 -5.47118 37001 ft 457 kts 205°
2026-05-07 20:13 46.66278 -5.50565 36997 ft 457 kts 205°
2026-05-07 20:13 46.60365 -5.54004 36992 ft 457 kts 205°
2026-05-07 20:14 46.54444 -5.57427 36986 ft 458 kts 205°
2026-05-07 20:14 46.48552 -5.60816 36985 ft 458 kts 205°
2026-05-07 20:15 46.42627 -5.64240 36957 ft 458 kts 205°
2026-05-07 20:15 46.36694 -5.67666 36962 ft 458 kts 205°
2026-05-07 20:16 46.30760 -5.71070 36964 ft 459 kts 205°
2026-05-07 20:16 46.24814 -5.74452 36966 ft 459 kts 205°
2026-05-07 20:17 46.18904 -5.77820 36960 ft 459 kts 205°
2026-05-07 20:17 46.12960 -5.81220 36957 ft 460 kts 205°
2026-05-07 20:18 46.07001 -5.84625 36980 ft 459 kts 205°
2026-05-07 20:18 46.01076 -5.87977 36958 ft 460 kts 205°
2026-05-07 20:19 45.95171 -5.91310 36979 ft 460 kts 205°
2026-05-07 20:19 45.89212 -5.94675 36980 ft 460 kts 205°
2026-05-07 20:20 45.83235 -5.98040 36961 ft 461 kts 205°
2026-05-07 20:20 45.77245 -6.01404 36958 ft 462 kts 205°
2026-05-07 20:21 45.71291 -6.04733 36970 ft 462 kts 205°
2026-05-07 20:21 45.65292 -6.08102 36972 ft 462 kts 205°
2026-05-07 20:22 45.59298 -6.11459 36959 ft 462 kts 205°
2026-05-07 20:22 45.53297 -6.14798 36961 ft 463 kts 205°
2026-05-07 20:23 45.47290 -6.18131 36955 ft 463 kts 205°
2026-05-07 20:23 45.41316 -6.21441 36940 ft 463 kts 205°
2026-05-07 20:24 45.35305 -6.24769 36936 ft 463 kts 205°
2026-05-07 20:24 45.29285 -6.28095 36939 ft 463 kts 205°
2026-05-07 20:25 45.23268 -6.31399 36936 ft 463 kts 205°
2026-05-07 20:25 45.17248 -6.34709 36928 ft 463 kts 205°
2026-05-07 20:26 45.11268 -6.37979 36929 ft 463 kts 205°
2026-05-07 20:26 45.05258 -6.41269 36949 ft 462 kts 205°
2026-05-07 20:27 44.99284 -6.44521 36941 ft 462 kts 205°
2026-05-07 20:27 44.93274 -6.47783 36945 ft 462 kts 205°
2026-05-07 20:28 44.87265 -6.51036 36944 ft 462 kts 205°
2026-05-07 20:28 44.81271 -6.54293 36946 ft 461 kts 205°
2026-05-07 20:29 44.75287 -6.57544 36942 ft 460 kts 206°
2026-05-07 20:29 44.69313 -6.60773 36942 ft 460 kts 205°
2026-05-07 20:30 44.63337 -6.63981 36938 ft 459 kts 205°
2026-05-07 20:30 44.57372 -6.67184 36937 ft 459 kts 205°
2026-05-07 20:31 44.51446 -6.70367 36936 ft 459 kts 205°
2026-05-07 20:31 44.45479 -6.73561 36934 ft 458 kts 205°
2026-05-07 20:32 44.39508 -6.76742 36913 ft 458 kts 206°
2026-05-07 20:32 44.33547 -6.79914 36927 ft 457 kts 206°
2026-05-07 20:33 44.27598 -6.83065 36938 ft 457 kts 206°
2026-05-07 20:33 44.21651 -6.86215 36948 ft 456 kts 206°
2026-05-07 20:34 44.15745 -6.89344 36948 ft 455 kts 205°
2026-05-07 20:34 44.09825 -6.92469 36956 ft 454 kts 205°
2026-05-07 20:35 44.03916 -6.95582 36952 ft 453 kts 205°
2026-05-07 20:35 43.98053 -6.98664 36941 ft 452 kts 206°
2026-05-07 20:36 43.92209 -7.01732 36949 ft 451 kts 206°
2026-05-07 20:36 43.86406 -7.04770 36918 ft 447 kts 205°
2026-05-07 20:37 43.80668 -7.07748 36900 ft 431 kts 206°
2026-05-07 20:37 43.75178 -7.10600 36913 ft 416 kts 206°
2026-05-07 20:38 43.69830 -7.13384 36913 ft 405 kts 206°
2026-05-07 20:38 43.64619 -7.16095 36923 ft 397 kts 206°
2026-05-07 20:39 43.59375 -7.18831 36905 ft 406 kts 206°
2026-05-07 20:39 43.54063 -7.21586 36918 ft 414 kts 206°
2026-05-07 20:40 43.48602 -7.24404 36914 ft 422 kts 206°
2026-05-07 20:40 43.43061 -7.27261 36915 ft 428 kts 206°
2026-05-07 20:41 43.37451 -7.30151 36912 ft 432 kts 206°
2026-05-07 20:41 43.31808 -7.33041 36913 ft 434 kts 206°
2026-05-07 20:42 43.26135 -7.35945 36916 ft 436 kts 206°
2026-05-07 20:42 43.20478 -7.38829 36915 ft 437 kts 206°
2026-05-07 20:43 43.14763 -7.41740 36914 ft 438 kts 205°
2026-05-07 20:43 43.09044 -7.44646 36909 ft 438 kts 205°
2026-05-07 20:44 43.03319 -7.47562 36910 ft 439 kts 206°
2026-05-07 20:44 42.97624 -7.50460 36894 ft 439 kts 205°
2026-05-07 20:45 42.91889 -7.53367 36910 ft 439 kts 205°
2026-05-07 20:45 42.86164 -7.56254 36913 ft 438 kts 205°
2026-05-07 20:46 42.80429 -7.59134 36908 ft 439 kts 205°
2026-05-07 20:46 42.74722 -7.62005 36892 ft 434 kts 205°
2026-05-07 20:47 42.69090 -7.64828 36921 ft 433 kts 205°
2026-05-07 20:47 42.63443 -7.67662 36931 ft 433 kts 205°
2026-05-07 20:48 42.57789 -7.70497 36935 ft 433 kts 205°
2026-05-07 20:48 42.52136 -7.73318 36937 ft 432 kts 205°
2026-05-07 20:49 42.46515 -7.76107 36936 ft 432 kts 205°
2026-05-07 20:49 42.40865 -7.78923 36939 ft 432 kts 205°
2026-05-07 20:50 42.35211 -7.81734 36942 ft 432 kts 205°
2026-05-07 20:50 42.29560 -7.84537 36943 ft 432 kts 205°
2026-05-07 20:50 42.26747 -7.85926 36803 ft 427 kts 205°
2026-05-07 20:51 42.23969 -7.87290 35488 ft 424 kts 204°
2026-05-07 20:51 42.21231 -7.88638 33985 ft 427 kts 204°
2026-05-07 20:51 42.18468 -7.90141 32187 ft 429 kts 208°
2026-05-07 20:51 42.15738 -7.91872 30289 ft 438 kts 208°
2026-05-07 20:52 42.12976 -7.93692 28153 ft 445 kts 208°
2026-05-07 20:52 42.10184 -7.95569 26099 ft 450 kts 208°
2026-05-07 20:52 42.07377 -7.97466 24174 ft 453 kts 207°
2026-05-07 20:52 42.04562 -7.99353 22616 ft 448 kts 206°
2026-05-07 20:53 42.01744 -8.01026 21154 ft 439 kts 197°
2026-05-07 20:53 41.98799 -8.01911 19824 ft 429 kts 189°
2026-05-07 20:53 41.95879 -8.02602 18547 ft 421 kts 192°
2026-05-07 20:53 41.93111 -8.03784 17229 ft 414 kts 199°
2026-05-07 20:54 41.90427 -8.05084 15938 ft 406 kts 199°
2026-05-07 20:54 41.87832 -8.06341 14765 ft 397 kts 199°
2026-05-07 20:54 41.85255 -8.07587 13601 ft 389 kts 199°
2026-05-07 20:54 41.82731 -8.08811 12343 ft 381 kts 199°
2026-05-07 20:55 41.80264 -8.10022 11104 ft 373 kts 199°
2026-05-07 20:55 41.77853 -8.11218 9883 ft 366 kts 199°
2026-05-07 20:55 41.75506 -8.12434 8514 ft 360 kts 205°
2026-05-07 20:55 41.73348 -8.14126 7721 ft 364 kts 210°
2026-05-07 20:56 41.71113 -8.15817 7577 ft 372 kts 202°
2026-05-07 20:56 41.68673 -8.17004 7472 ft 376 kts 198°
2026-05-07 20:56 41.66209 -8.18145 7415 ft 374 kts 198°
2026-05-07 20:56 41.63743 -8.19283 7386 ft 374 kts 198°
2026-05-07 20:57 41.61284 -8.20417 7365 ft 374 kts 198°
2026-05-07 20:57 41.58821 -8.21550 7365 ft 374 kts 198°
2026-05-07 20:57 41.56359 -8.22679 7385 ft 374 kts 198°
2026-05-07 20:57 41.53896 -8.23807 7407 ft 374 kts 198°
2026-05-07 20:58 41.51433 -8.24936 7439 ft 374 kts 198°
2026-05-07 20:58 41.49803 -8.25685 7476 ft 374 kts 198°
2026-05-07 20:58 41.46537 -8.27184 7563 ft 374 kts 198°
2026-05-07 20:58 41.44075 -8.28313 7647 ft 375 kts 198°
2026-05-07 20:59 41.41611 -8.29443 7741 ft 375 kts 198°
2026-05-07 20:59 41.39135 -8.30578 7839 ft 375 kts 198°
2026-05-07 20:59 41.36659 -8.31710 7961 ft 376 kts 198°
2026-05-07 20:59 41.34188 -8.32842 8087 ft 376 kts 198°
2026-05-07 21:00 41.31703 -8.33978 8215 ft 376 kts 198°
2026-05-07 21:00 41.29261 -8.35093 8327 ft 373 kts 198°
2026-05-07 21:00 41.26816 -8.36207 8207 ft 369 kts 198°
2026-05-07 21:00 41.24433 -8.37294 7681 ft 352 kts 198°
2026-05-07 21:01 41.22141 -8.38336 6386 ft 346 kts 199°
2026-05-07 21:01 41.20648 -8.39014 5771 ft 337 kts 199°
2026-05-07 21:01 41.18535 -8.39974 5567 ft 305 kts 199°
2026-05-07 21:01 41.16626 -8.40841 5438 ft 276 kts 199°
2026-05-07 21:02 41.14890 -8.41629 5309 ft 251 kts 199°
2026-05-07 21:02 41.13372 -8.42554 5090 ft 232 kts 216°
2026-05-07 21:02 41.12299 -8.44056 5017 ft 224 kts 238°
2026-05-07 21:02 41.11755 -8.45988 4971 ft 226 kts 258°
2026-05-07 21:03 41.11496 -8.47968 4920 ft 208 kts 259°
2026-05-07 21:03 41.11257 -8.49820 4861 ft 202 kts 259°
2026-05-07 21:03 41.11019 -8.51655 4693 ft 202 kts 259°
2026-05-07 21:03 41.10779 -8.53481 4449 ft 201 kts 259°
2026-05-07 21:04 41.10541 -8.55305 4195 ft 201 kts 259°
2026-05-07 21:04 41.10285 -8.57251 3927 ft 227 kts 259°
2026-05-07 21:04 41.10011 -8.59331 3616 ft 230 kts 259°
2026-05-07 21:04 41.09748 -8.61389 3317 ft 228 kts 263°
2026-05-07 21:05 41.09988 -8.63361 3002 ft 213 kts 303°
2026-05-07 21:05 41.11075 -8.64512 2769 ft 197 kts 343°
2026-05-07 21:05 41.12394 -8.64788 2480 ft 190 kts 351°
2026-05-07 21:05 41.13680 -8.65104 2213 ft 187 kts 348°
2026-05-07 21:06 41.14932 -8.65450 1961 ft 177 kts 348°
2026-05-07 21:06 41.16094 -8.65772 1727 ft 164 kts 348°
2026-05-07 21:06 41.17180 -8.66070 1506 ft 155 kts 348°
2026-05-07 21:06 41.18228 -8.66352 1297 ft 151 kts 348°
2026-05-07 21:07 41.19252 -8.66640 1093 ft 149 kts 346°
2026-05-07 21:07 41.20261 -8.66941 879 ft 148 kts 349°
2026-05-07 21:07 41.21257 -8.67190 684 ft 146 kts 348°
2026-05-07 21:07 41.22255 -8.67453 493 ft 146 kts 349°
2026-05-07 21:08 41.23251 -8.67717 309 ft 147 kts 349°
2026-05-07 21:08 41.24193 -8.67965 214 ft 108 kts 349°
2026-05-07 21:08 41.24654 -8.68086 208 ft 50 kts 348°
2026-05-07 21:08 41.24960 -8.68164 197 ft 42 kts 351°
2026-05-07 21:09 41.25173 -8.68147 183 ft 16 kts 354°
2026-05-07 21:09 41.25289 -8.68086 179 ft 17 kts 49°
2026-05-07 21:09 41.25288 -8.68031 181 ft 6 kts 126°
2026-05-07 21:09 41.25175 -8.67991 187 ft 27 kts 169°
2026-05-07 21:10 41.24997 -8.67944 199 ft 24 kts 168°
2026-05-07 21:10 41.24849 -8.67889 212 ft 21 kts 151°
2026-05-07 21:10 41.24727 -8.67818 210 ft 18 kts 169°
2026-05-07 21:10 41.24615 -8.67791 214 ft 15 kts 169°
2026-05-07 21:11 41.24506 -8.67760 220 ft 20 kts 168°
2026-05-07 21:11 41.24365 -8.67724 227 ft 20 kts 169°
2026-05-07 21:11 41.24183 -8.67507 240 ft 21 kts 139°
2026-05-07 21:12 41.24064 -8.67429 242 ft 17 kts 167°
2026-05-07 21:12 41.24036 -8.67419 242 ft 0 kts 152°
2026-05-07 21:12 41.24032 -8.67403 243 ft 6 kts 98°
2026-05-07 21:12 41.24047 -8.67368 244 ft 2 kts 60°
2026-05-07 21:13 41.24052 -8.67354 245 ft 4 kts 66°
2026-05-07 21:13 41.24059 -8.67315 245 ft 0 kts 78°